[[{"header":{"parameterUnit":"m.s-1","parameterCategory":1,"la1":30.2991,"la2":30.254,"lo1":-89.0895,"lo2":-89.0444,"dy":0.0017,"dx":0.0017,"nx":28,"ny":28,"refTime":"2024-06-08T09:00:00:Z","depth":0,"parameterNumber":2,"parameterNumberName":"U-component_of_WINDS"},"data":[0,0,0,0,0,0,0,0,0,0,0,0,0,0,0,0,0,0,0,0,0,0,0,0,0,0,0,0,0,0,0,0,0,0,0,0,0,0,0,0,0,0,0,0,0,0,0,0,0,0,0,0,0,0,0,0,0,0,-3.6989,-3.6989,0,-3.7025,-3.7025,-3.7026,-3.6901,-3.6897,-3.6893,-3.689,-3.6929,-3.6934,-3.6938,0,0,0,0,0,0,0,0,0,0,0,0,0,-3.6813,-3.6817,-3.6989,-3.6989,-3.699,-3.7025,-3.7025,-3.7026,-3.6902,-3.6897,-3.6893,-3.6888,-3.6928,-3.6933,-3.6939,0,0,0,0,0,0,0,0,0,0,0,0,0,-3.6874,-3.6818,-3.6989,-3.6932,-3.6927,-3.7025,-3.7025,-3.7026,-3.6903,-3.6897,-3.6891,-3.6886,-3.6926,-3.6933,-3.6939,-3.7094,0,0,-3.696,-3.6963,0,0,0,0,0,0,0,0,-3.687,-3.688,-3.694,-3.6936,-3.6931,-3.6953,-3.6978,-3.7049,-3.6904,-3.6912,-3.689,-3.6883,-3.6942,-3.6947,-3.6966,-3.7096,-3.7098,-3.6961,-3.6965,-3.6968,-3.697,0,0,0,0,0,0,0,-3.6866,-3.6878,-3.7003,-3.6941,-3.6935,-3.6905,-3.6907,-3.6991,-3.6958,-3.6911,-3.6902,-3.6908,-3.6938,-3.696,-3.6966,-3.7098,-3.6961,-3.6967,-3.6971,-3.6974,-3.7357,-3.7362,0,0,0,0,0,0,-3.6869,-3.6875,-3.7002,-3.7004,-3.6886,-3.6913,-3.6915,-3.6951,-3.6957,-3.6952,-3.6913,-3.6902,-3.6951,-3.6958,-3.6967,-3.7149,-3.6968,-3.6974,-3.6978,-3.7351,-3.7358,-3.7365,0,0,0,0,0,0,-3.6866,-3.6882,-3.7,-3.6937,-3.695,-3.6922,-3.6963,-3.6955,-3.6977,-3.6958,-3.6952,-3.6941,-3.6947,-3.6958,-3.7063,-3.7149,-3.6977,-3.6984,-3.7343,-3.7353,-3.7361,-3.7514,0,0,0,0,0,0,-3.6862,-3.6881,-3.694,-3.694,-3.6954,-3.7097,-3.6968,-3.696,-3.6988,-3.6975,-3.6983,-3.6979,-3.6943,-3.7054,-3.707,-3.7155,-3.6989,-3.7336,-3.7348,-3.7358,-3.7501,-3.7527,-3.7549,0,0,0,0,0,-3.6856,-3.6982,-3.6944,-3.696,-3.7026,-3.7102,-3.711,-3.7066,-3.6996,-3.7055,-3.7042,-3.6979,-3.7136,-3.7066,-3.7083,-3.7171,-3.733,-3.7344,-3.7358,-3.7491,-3.7522,-3.7549,0,0,0,0,0,0,-3.6995,-3.6981,-3.6938,-3.7068,-3.7087,-3.708,-3.7153,-3.7101,-3.714,-3.7126,-3.707,-3.7073,-3.7189,-3.719,-3.7112,-3.7321,-3.7221,-3.7239,-3.7316,-3.7346,-3.737,-3.7368,-3.6995,0,0,0,0,0,-3.704,-3.7102,-3.7087,-3.7203,-3.7214,-3.7183,-3.7213,-3.7178,-3.7195,-3.7203,-3.7198,-3.7218,-3.7272,-3.7309,-3.7357,-3.75,-3.75,-3.7569,-3.7593,-3.7613,-3.763,-3.7705,-3.7736,-3.7409,-3.7409,-3.7409,0,0,-3.7135,-3.7135,-3.7178,-3.7231,-3.7241,-3.7306,-3.719,-3.7264,-3.7313,-3.7214,-3.7314,-3.7311,-3.733,-3.7455,-3.751,-3.7459,-3.7719,-3.763,-3.7646,-3.7652,-3.7722,-3.7753,-3.7781,-3.7419,-3.7417,-3.7416,0,0,-3.7342,-3.7348,-3.7446,-3.7458,-3.7474,-3.7452,-3.7476,-3.7477,-3.7471,-3.757,-3.7497,-3.7554,-3.7648,-3.7664,-3.7684,-3.7896,-3.7839,-3.7913,-3.804,-3.8114,-3.814,-3.8162,-3.8238,-3.8266,-3.7929,-3.793,-3.793,0,-3.7459,-3.7554,-3.7503,-3.7582,-3.7607,-3.7519,-3.7618,-3.7632,-3.7665,-3.7684,-3.7627,-3.7742,-3.7749,-3.7876,-3.7928,-3.7947,-3.7972,-3.7913,-3.814,-3.8162,-3.8182,-3.8254,-3.8283,-3.7939,-3.7938,-3.7937,-3.7936,0,-3.7697,-3.7764,-3.7841,-3.7873,-3.7907,-3.7995,-3.7957,-3.7998,-3.7958,-3.7942,-3.8044,-3.8048,-3.8096,-3.8123,-3.8086,-3.8245,-3.8213,-3.8149,-3.8048,-3.8223,-3.829,-3.8317,-3.7951,-3.7948,-3.7946,-3.7943,0,0,-3.7995,-3.7996,-3.8025,-3.8038,-3.8049,-3.81,-3.8185,-3.823,-3.8266,-3.8291,-3.836,-3.8441,-3.8381,-3.8404,-3.8368,-3.8433,-3.8601,-3.836,-3.836,-3.8406,-3.8777,-3.8827,-3.886,-3.8562,-3.8567,-3.8571,-3.8776,0,-3.8199,-3.8343,-3.8298,-3.8443,-3.8505,-3.8421,-3.8495,-3.851,-3.8496,-3.8547,-3.8532,-3.859,-3.8506,-3.852,-3.858,-3.8568,-3.8675,-3.8552,-3.8628,-3.8631,-3.8627,-3.8894,-3.8947,-3.9141,-3.8802,-3.8806,-3.8809,0,-3.8457,-3.8491,-3.8642,-3.8642,-3.8666,-3.8733,-3.8771,-3.8819,-3.8834,-3.882,-3.8846,-3.8795,-3.8878,-3.8775,-3.8889,-3.8806,-3.8834,-3.8832,-3.8839,-3.8846,-3.8732,-3.891,-3.9201,-3.9231,-3.885,-3.8846,-3.8844,0,-3.8661,-3.8744,-3.8845,-3.8858,-3.8861,-3.8909,-3.8913,-3.8922,-3.8952,-3.8985,-3.9004,-3.9046,-3.907,-3.9104,-3.9067,-3.8995,-3.9186,-3.908,-3.9177,-3.9179,-3.9223,-3.9221,-3.9525,-3.9239,-3.9238,-3.9238,-3.9237,0,-3.8895,-3.8991,-3.8936,-3.8999,-3.9104,-3.9051,-3.9156,-3.915,-3.9159,-3.9219,-3.9149,-3.9207,-3.9153,-3.9206,-3.9177,-3.9275,-3.9286,-3.9278,-3.9269,-3.9285,-3.9286,-3.9304,-3.929,-3.9246,-3.9244,-3.9242,-3.9241,0,-3.9141,-3.9108,-3.9212,-3.9205,-3.9205,-3.9283,-3.9277,-3.9334,-3.9315,-3.9392,-3.9407,-3.9377,-3.9436,-3.9401,-3.9461,-3.9442,-3.957,-3.9543,-3.9566,-3.9559,-3.9658,-3.965,-3.9985,-4.0026,-3.9713,-3.9716,-3.9719,0,-3.9293,-3.9365,-3.9364,-3.9399,-3.9406,-3.9463,-3.9493,-3.9443,-3.9477,-3.9499,-3.9554,-3.9606,-3.9646,-3.9743,-3.9728,-3.9773,-3.9747,-3.9861,-3.9753,-3.9767,-3.975,-3.9747,-3.9754,-3.9883,-3.9887,-3.989,-3.9892,0,-3.9567,-3.9547,-3.9592,-3.9632,-3.9669,-3.9698,-3.9721,-3.9754,-3.9704,-3.9746,-3.9804,-3.9835,-3.9895,-3.9948,-3.9987,-3.999,-3.9934,-3.9926,-3.9951,-3.9969,-3.998,-3.9976,-3.9626,-3.9919,-3.9916,-3.9915,-3.9913,-3.9912,-3.9771,-3.9831,-3.984,-3.9893,-3.9904,-3.9928,-3.9981,-3.9968,-4.0015,-4.006,-4.0028,-4.0098,-4.0109,-4.0155,-4.0165,-4.0219,-4.0173,-4.0209,-4.0219,-4.0229,-4.0243,-3.997,-4.0226,-4.0225,-4.0224,-4.0223,-4.0223,0,-4.0043,-4.0044,-4.0092,-4.0127,-4.0168,-4.0109,-4.0132,-4.0171,-4.0233,-4.0248,-4.0287,-4.0355,-4.0405,-4.0393,-4.0438,-4.0484,-4.0459,-4.0498,-4.0495,-4.0497,-4.0281,-4.0255,-4.0517,-4.0517,-4.0517,-4.0517,-4.0517,-4.0517,-4.0189,-4.0287,-4.0268,-4.0371,-4.0371,-4.0438,-4.0456,-4.0477,-4.0488,-4.0566,-4.0608,-4.0598,-4.0603,-4.0648,-4.0692,-4.0686,-4.0707,-4.0756,-4.0742,-4.0541,-4.0512,-4.0484,-4.046,-4.076,-4.076,-4.0952,-4.0954,-4.0956]},{"header":{"parameterUnit":"m.s-1","parameterCategory":1,"la1":30.2991,"la2":30.254,"lo1":-89.0895,"lo2":-89.0444,"dy":0.0017,"dx":0.0017,"nx":28,"ny":28,"refTime":"2024-06-08T09:00:00:Z","depth":0,"parameterNumber":3,"parameterNumberName":"V-component_of_WINDS"},"data":[0,0,0,0,0,0,0,0,0,0,0,0,0,0,0,0,0,0,0,0,0,0,0,0,0,0,0,0,0,0,0,0,0,0,0,0,0,0,0,0,0,0,0,0,0,0,0,0,0,0,0,0,0,0,0,0,0,0,-3.2369,-3.2369,0,-3.238,-3.238,-3.238,-3.2308,-3.2305,-3.2303,-3.2301,-3.2314,-3.2316,-3.2319,0,0,0,0,0,0,0,0,0,0,0,0,0,-3.2286,-3.2288,-3.2369,-3.2369,-3.2369,-3.238,-3.238,-3.238,-3.2308,-3.2305,-3.2303,-3.2301,-3.2313,-3.2316,-3.2319,0,0,0,0,0,0,0,0,0,0,0,0,0,-3.2312,-3.2288,-3.2369,-3.2335,-3.2332,-3.238,-3.238,-3.238,-3.2308,-3.2305,-3.2302,-3.2299,-3.2313,-3.2316,-3.2319,-3.2402,0,0,-3.2329,-3.2331,0,0,0,0,0,0,0,0,-3.2311,-3.2315,-3.234,-3.2337,-3.2334,-3.2339,-3.2355,-3.2387,-3.2309,-3.2317,-3.2301,-3.2298,-3.2325,-3.2327,-3.2336,-3.2402,-3.2403,-3.233,-3.2332,-3.2333,-3.2334,0,0,0,0,0,0,0,-3.2309,-3.2314,-3.2373,-3.234,-3.2336,-3.2318,-3.2319,-3.2361,-3.2338,-3.2316,-3.2311,-3.2313,-3.2323,-3.2333,-3.2336,-3.2403,-3.233,-3.2333,-3.2335,-3.2336,-3.2534,-3.2537,0,0,0,0,0,0,-3.2312,-3.2313,-3.2373,-3.2374,-3.2314,-3.2322,-3.2323,-3.2341,-3.2338,-3.2334,-3.2316,-3.231,-3.2329,-3.2332,-3.2336,-3.243,-3.2333,-3.2336,-3.2338,-3.2531,-3.2535,-3.2538,0,0,0,0,0,0,-3.231,-3.2318,-3.2373,-3.2342,-3.2348,-3.2327,-3.2348,-3.2342,-3.2352,-3.2337,-3.2333,-3.233,-3.2326,-3.2331,-3.2385,-3.243,-3.2338,-3.2341,-3.2527,-3.2532,-3.2537,-3.2621,0,0,0,0,0,0,-3.2308,-3.2318,-3.2349,-3.2343,-3.235,-3.2422,-3.2351,-3.2345,-3.2358,-3.235,-3.235,-3.2347,-3.2324,-3.238,-3.2388,-3.2433,-3.2344,-3.2523,-3.2529,-3.2535,-3.2614,-3.2628,-3.264,0,0,0,0,0,-3.2305,-3.2373,-3.2351,-3.2359,-3.2388,-3.2425,-3.2428,-3.2401,-3.2362,-3.2393,-3.2383,-3.2347,-3.2424,-3.2387,-3.2395,-3.2441,-3.252,-3.2528,-3.2535,-3.2608,-3.2625,-3.264,0,0,0,0,0,0,-3.2386,-3.2372,-3.2347,-3.2415,-3.2422,-3.2412,-3.2451,-3.242,-3.2438,-3.243,-3.2396,-3.2396,-3.2455,-3.2454,-3.2412,-3.2519,-3.2465,-3.2474,-3.2518,-3.2534,-3.2547,-3.2546,-3.2346,0,0,0,0,0,-3.2412,-3.2442,-3.2428,-3.249,-3.2494,-3.2472,-3.2487,-3.2465,-3.247,-3.2473,-3.2467,-3.2474,-3.2499,-3.2517,-3.2539,-3.2613,-3.2611,-3.2649,-3.2662,-3.2673,-3.2681,-3.2718,-3.2734,-3.2562,-3.2562,-3.2562,0,0,-3.2466,-3.2461,-3.2483,-3.2506,-3.2508,-3.254,-3.2475,-3.2512,-3.2535,-3.2479,-3.2528,-3.2524,-3.2529,-3.2593,-3.2621,-3.2593,-3.2728,-3.2682,-3.2691,-3.2693,-3.2727,-3.2743,-3.2758,-3.2567,-3.2566,-3.2566,0,0,-3.2579,-3.258,-3.263,-3.2633,-3.2636,-3.2621,-3.2633,-3.2628,-3.2622,-3.2671,-3.2629,-3.2656,-3.2701,-3.2706,-3.2714,-3.2826,-3.2793,-3.2835,-3.2903,-3.2939,-3.2953,-3.2964,-3.3003,-3.3017,-3.2843,-3.2844,-3.2844,0,-3.2646,-3.2692,-3.266,-3.2699,-3.2709,-3.2658,-3.2708,-3.2712,-3.2724,-3.2732,-3.2701,-3.2755,-3.2755,-3.2818,-3.2845,-3.2854,-3.2866,-3.2835,-3.2953,-3.2965,-3.2975,-3.3012,-3.3026,-3.2849,-3.2848,-3.2847,-3.2847,0,-3.2772,-3.2804,-3.2844,-3.2855,-3.287,-3.2914,-3.2888,-3.2908,-3.2884,-3.2871,-3.2921,-3.2919,-3.2939,-3.2952,-3.2931,-3.3012,-3.2994,-3.2959,-3.2904,-3.2997,-3.303,-3.3044,-3.2856,-3.2854,-3.2852,-3.2851,0,0,-3.2939,-3.2928,-3.2944,-3.2946,-3.2945,-3.297,-3.3011,-3.303,-3.3046,-3.3055,-3.3088,-3.3126,-3.3092,-3.3102,-3.308,-3.3112,-3.3198,-3.3072,-3.3071,-3.3094,-3.3286,-3.3312,-3.3329,-3.3176,-3.3179,-3.3181,-3.3285,0,-3.3048,-3.3117,-3.3088,-3.316,-3.3189,-3.3139,-3.3175,-3.3178,-3.3167,-3.3189,-3.3177,-3.3204,-3.3159,-3.3163,-3.3193,-3.3182,-3.3236,-3.3174,-3.3206,-3.3208,-3.3205,-3.3346,-3.3375,-3.3473,-3.3298,-3.33,-3.3302,0,-3.3186,-3.3198,-3.3272,-3.3263,-3.3274,-3.3307,-3.332,-3.3342,-3.3344,-3.3334,-3.3343,-3.3313,-3.3352,-3.3298,-3.335,-3.3309,-3.332,-3.3316,-3.3319,-3.3321,-3.326,-3.3351,-3.3504,-3.3518,-3.3323,-3.3321,-3.3319,0,-3.3298,-3.3333,-3.3381,-3.3386,-3.3377,-3.3401,-3.3398,-3.3397,-3.3409,-3.3421,-3.3428,-3.3445,-3.3454,-3.3468,-3.3443,-3.3405,-3.3499,-3.3442,-3.3491,-3.3491,-3.3512,-3.3511,-3.3668,-3.3522,-3.3521,-3.3521,-3.3521,0,-3.3423,-3.347,-3.3431,-3.3461,-3.3511,-3.3477,-3.3528,-3.3521,-3.3519,-3.3546,-3.3505,-3.3531,-3.3497,-3.352,-3.35,-3.3546,-3.3551,-3.3543,-3.3537,-3.3546,-3.3547,-3.3553,-3.3545,-3.3525,-3.3524,-3.3523,-3.3523,0,-3.3557,-3.3533,-3.3581,-3.3568,-3.3566,-3.3604,-3.3592,-3.3619,-3.3604,-3.3638,-3.3645,-3.3622,-3.3646,-3.3622,-3.3646,-3.3633,-3.3694,-3.3679,-3.3693,-3.3688,-3.3737,-3.3732,-3.3903,-3.3923,-3.3764,-3.3766,-3.3767,0,-3.3638,-3.3672,-3.3661,-3.3676,-3.3675,-3.3699,-3.371,-3.3678,-3.3691,-3.3694,-3.3721,-3.3741,-3.3756,-3.3797,-3.3783,-3.38,-3.3784,-3.3843,-3.3787,-3.3794,-3.3783,-3.3781,-3.3784,-3.3854,-3.3856,-3.3858,-3.3859,0,-3.3783,-3.3769,-3.3786,-3.3799,-3.3813,-3.3822,-3.3828,-3.3842,-3.3808,-3.3825,-3.3849,-3.386,-3.3882,-3.3903,-3.3916,-3.3913,-3.388,-3.3876,-3.3888,-3.3897,-3.3904,-3.3899,-3.3723,-3.3873,-3.3871,-3.387,-3.3869,-3.3869,-3.3892,-3.3919,-3.3915,-3.3935,-3.3935,-3.3941,-3.3965,-3.3951,-3.397,-3.3985,-3.3965,-3.3993,-3.3992,-3.4005,-3.4006,-3.4028,-3.4004,-3.4021,-3.4025,-3.403,-3.4036,-3.3901,-3.4031,-3.403,-3.403,-3.4029,-3.4029,0,-3.4034,-3.4028,-3.4047,-3.4055,-3.407,-3.4036,-3.404,-3.4056,-3.4081,-3.4082,-3.4096,-3.4122,-3.4141,-3.4128,-3.4144,-3.4164,-3.4149,-3.4169,-3.4167,-3.4166,-3.4058,-3.4046,-3.4181,-3.4181,-3.4181,-3.418,-3.418,-3.418,-3.411,-3.4153,-3.4138,-3.4181,-3.4175,-3.4201,-3.4206,-3.4211,-3.4211,-3.4241,-3.4256,-3.4246,-3.4241,-3.4256,-3.4272,-3.4267,-3.4275,-3.43,-3.429,-3.4189,-3.4174,-3.416,-3.4148,-3.4302,-3.4302,-3.4396,-3.4397,-3.4397]}]]